RESURS-P 2 (40360 NORAD) Tracking and Keplerian Element Data

This shows tracking and keplerian element data for the satellite.

Feedback or suggestion? Click here.




ElementValue
Catalog40360
NameRESURS-P 2
Epoch Orbit56750
Epoch Day34.54917024
Epoch Year2025
RAAN133.9866
Inclination97.112
Eccentricity0.0002653
Argument of Perigee258.2641
Mean Anonmoly228.2368
Mean Motion16.16985133
Decay Rate0.00707465
L11 40360U 14087A 25034.54917024 .00707465 31330-3 47525-3 0 9997
L22 40360 97.1120 133.9866 0002653 258.2641 228.2368 16.16985133567502



Live tracking and technical data element details for RESURS-P 2 (NORAD 40360). RESURS-P 2 can be tracked NOW for your location showing map with azimuth and elevation plus other details from your city location.







IsCatalogInMostPopularTable: catalog: 40360, numindb: 700
Update: records affected: 1



GetName: 40360 RESURS-P 2

Hit Count: updated at: Wed, 30 Apr 2025 16:55:25 GMT